This demonstration page uses our WeatherBlox Daily Observations layout. Learn more.

Left ArrowRight Arrow

Hourly Observations for April 5, 2015

Temp ( °F °C ) Dew Point ( °F °C ) Humidity (%) Winds ( mph kmh ) Pressure ( in mb ) Visibility ( mi km ) Precip ( " mm )
12:13 am 00:13 Partly Cloudy 36 2.2 34 1.1 93 93 E 17 28 30.00 1016 10 16 N/A
12:53 am 00:53 Clear 34 1.1 33 0.6 97 97 E 15 24 29.93 1013 10 16 N/A
1:53 am 01:53 Clear 32 undefined 31 -0.6 96 96 E 13 20 29.92 1013 10 16 N/A
2:53 am 02:53 Mostly Clear 33 0.6 31 -0.6 92 92 E 15 24 29.91 1013 10 16 N/A
3:53 am 03:53 Clear 33 0.6 31 -0.6 92 92 E 10 17 29.90 1013 10 16 N/A
4:07 am 04:07 Mostly Cloudy 33 0.6 31 -0.6 92 92 E 8 13 29.94 1014 10 16 N/A
4:50 am 04:50 Cloudy with Mist and Fog 30 -1 30 -1 100 100 W 3 6 30.00 1016 2 3 N/A
4:53 am 04:53 Cloudy with Mist and Fog 31 -0.6 31 -0.6 100 100 W 3 6 29.91 1013 2 2 N/A
5:09 am 05:09 Cloudy with Mist and Fog 32 undefined 32 undefined 100 100 WSW 5 7 29.97 1015 1 1 N/A
5:16 am 05:16 Cloudy with Fog 32 undefined 32 undefined 100 100 WSW 5 7 29.97 1015 1 1 N/A
5:31 am 05:31 Mostly Cloudy with Fog 32 undefined 32 undefined 100 100 W 3 6 29.97 1015 0 0 N/A
5:53 am 05:53 Mostly Cloudy with Fog 32 undefined 32 undefined 100 100 N N/A 29.91 1013 1 1 N/A
6:16 am 06:16 Mostly Cloudy with Fog 32 undefined 32 undefined 100 100 S 5 7 29.97 1015 1 1 N/A
6:21 am 06:21 Cloudy with Mist and Fog 32 undefined 32 undefined 100 100 SSE 5 7 29.97 1015 1 2 N/A
6:26 am 06:26 Cloudy with Mist and Fog 32 undefined 32 undefined 100 100 SSE 3 6 29.97 1015 2 3 N/A
6:34 am 06:34 Cloudy with Mist and Fog 32 undefined 32 undefined 100 100 SE 3 6 29.97 1015 6 10 N/A
6:53 am 06:53 Cloudy 32 undefined 31 -0.6 96 96 E 5 7 29.94 1014 10 16 N/A
7:53 am 07:53 Cloudy 33 0.6 32 undefined 96 96 E 7 11 29.95 1014 10 16 N/A
8:53 am 08:53 Cloudy 34 1.1 32 undefined 92 92 E 8 13 29.94 1014 10 16 N/A
9:53 am 09:53 Cloudy 35 1.7 32 undefined 89 89 ENE 12 19 29.93 1014 8 13 N/A
10:53 am 10:53 Cloudy with Mist and Fog 34 1.1 32 undefined 92 92 ENE 17 28 29.95 1014 6 10 N/A
11:53 am 11:53 Cloudy 34 1.1 31 -0.6 89 89 E 17 28 29.96 1014 7 11 N/A
12:53 pm 12:53 Cloudy with Mist and Fog 33 0.6 31 -0.6 92 92 ENE 16 26 29.96 1014 6 10 N/A
1:53 pm 13:53 Cloudy 34 1.1 31 -0.6 89 89 ENE 15 24 29.96 1015 8 13 N/A
2:53 pm 14:53 Cloudy 34 1.1 31 -0.6 89 89 ENE 16 26 29.96 1015 7 11 N/A
3:53 pm 15:53 Cloudy 34 1.1 30 -1.1 85 85 ENE 17 28 29.97 1015 10 16 N/A
4:14 pm 16:14 Cloudy 34 1 28 -2 81 81 ENE 17 28 30.00 1016 10 16 N/A
4:45 pm 16:45 Cloudy 35 1.7 28 -2.2 76 76 ENE 15 24 30.00 1016 10 16 N/A
4:53 pm 16:53 Cloudy 35 1.7 28 -2.2 76 76 ENE 17 28 29.98 1015 10 16 N/A
5:53 pm 17:53 Cloudy 35 1.7 27 -2.8 72 72 ENE 15 24 29.98 1015 10 16 N/A
6:53 pm 18:53 Cloudy 34 1.1 27 -2.8 76 76 E 13 20 29.99 1016 10 16 N/A
7:53 pm 19:53 Cloudy 33 0.6 27 -2.8 78 78 E 12 19 30.00 1016 10 16 N/A
8:53 pm 20:53 Cloudy 33 0.6 27 -2.8 78 78 ENE 15 24 30.01 1016 10 16 N/A
9:53 pm 21:53 Cloudy 32 undefined 27 -2.8 82 82 E 15 24 30.02 1017 10 16 N/A
10:53 pm 22:53 Cloudy 32 undefined 27 -2.8 82 82 E 15 24 30.02 1017 10 16 N/A
11:34 pm 23:34 Cloudy 32 undefined 27 -3 80 80 E 16 26 30.06 1018 10 16 N/A
11:53 pm 23:53 Cloudy 32 undefined 27 -2.8 82 82 E 15 24 30.02 1017 10 16 N/A

Powered by AerisWeather